CW8122 Weather Reports


time (UTC)temp
F
wind
direction
speed
knots
gust
knots
rain 1hr
in
rain 24hr
in
rain mn
in
humidity
%
barometer
mb
20260508075212 52 323 2.6 4.3 0.00 0.00 0.00 24 1017.9
20260508073713 53 306 0.9 2.6 0.00 0.00 0.00 23 1018.1
20260508073213 53 307 1.7 2.6 0.00 0.00 0.00 23 1018.2
20260508071712 54 258 0.0 0.0 0.00 0.00 0.00 23 1018.3
20260508071212 54 258 0.0 0.0 0.00 0.00 0.00 22 1018.3
20260508070213 54 258 0.0 0.0 0.00 0.00 0.00 22 1018.3
20260508065713 54 258 0.0 2.6 0.00 0.00 0.00 22 1018.4
20260508064212 55 297 0.9 1.7 0.00 0.00 0.00 21 1018.4
20260508063713 55 297 0.9 2.6 0.00 0.00 0.00 21 1018.3
20260508062712 55 283 0.9 1.7 0.00 0.00 0.00 21 1018.3
20260508062213 56 252 0.9 2.6 0.00 0.00 0.00 20 1018.4
20260508060714 56 200 0.0 2.6 0.00 0.00 0.00 20 1018.3
20260508053213 59 253 1.7 2.6 0.00 0.00 0.00 17 1018.2
20260508052713 59 234 2.6 4.3 0.00 0.00 0.00 17 1018.2
20260508052213 59 213 1.7 4.3 0.00 0.00 0.00 16 1018.2
20260508051713 59 245 1.7 2.6 0.00 0.00 0.00 16 1018.2
20260508050212 60 214 2.6 5.2 0.00 0.00 0.00 16 1018.2
20260508045712 60 230 1.7 5.2 0.00 0.00 0.00 16 1018.4
20260508044213 60 219 0.9 2.6 0.00 0.00 0.00 16 1018.1
20260508042712 61 280 0.0 0.9 0.00 0.00 0.00 15 1018.2
20260508042213 61 280 0.0 1.7 0.00 0.00 0.00 15 1018.2
20260508040712 62 288 1.7 2.6 0.00 0.00 0.00 14 1018.3
20260508040212 62 283 0.9 2.6 0.00 0.00 0.00 14 1018.2
20260508035712 63 292 1.7 4.3 0.00 0.00 0.00 13 1018.2
20260508034713 63 297 0.9 4.3 0.00 0.00 0.00 13 1018.1
20260508033214 64 296 1.7 4.3 0.00 0.00 0.00 12 1017.8
20260508032712 65 296 0.9 5.2 0.00 0.00 0.00 12 1017.7
20260508031712 66 303 1.7 5.2 0.00 0.00 0.00 11 1017.6
20260508031212 66 304 1.7 5.2 0.00 0.00 0.00 11 1017.5
20260508030713 66 287 1.7 5.2 0.00 0.00 0.00 10 1017.4
20260508030213 67 300 1.7 5.2 0.00 0.00 0.00 10 1017.4
20260508025712 67 301 2.6 6.1 0.00 0.00 0.00 10 1017.4
20260508025212 67 303 1.7 6.1 0.00 0.00 0.00 10 1017.3
20260508024713 68 297 0.9 4.3 0.00 0.00 0.00 10 1017.2
20260508022212 70 300 0.9 4.3 0.00 0.00 0.00 9 1016.9
20260508020712 71 326 0.9 4.3 0.00 0.00 0.00 9 1016.7
20260508020212 71 305 1.7 4.3 0.00 0.00 0.00 9 1016.6
20260508014712 72 297 0.0 6.1 0.00 0.00 0.00 10 1016.6
20260508014213 72 239 0.9 7.0 0.00 0.00 0.00 12 1016.5
20260508013712 72 270 1.7 7.0 0.00 0.00 0.00 12 1016.5
20260508013213 73 159 2.6 5.2 0.00 0.00 0.00 13 1016.3
20260508012212 73 225 1.7 5.2 0.00 0.00 0.00 13 1016.2
20260508010712 74 158 2.6 7.0 0.00 0.00 0.00 13 1016.1
20260508005712 74 159 3.5 7.0 0.00 0.00 0.00 12 1016.1
20260508002712 75 169 2.6 8.7 0.00 0.00 0.00 11 1016.1
20260507235713 75 181 4.3 10.4 0.00 0.00 0.00 10 1016.3
20260507234212 76 155 5.2 10.4 0.00 0.00 0.00 11 1016.4
20260507231712 75 151 5.2 11.3 0.00 0.00 0.00 10 1016.7
20260507231212 75 166 5.2 12.2 0.00 0.00 0.00 10 1016.7
20260507230712 76 162 7.0 12.2 0.00 0.00 0.00 11 1016.8
20260507230212 75 159 6.1 10.4 0.00 0.00 0.00 11 1016.9
20260507224712 75 160 1.7 10.4 0.00 0.00 0.00 10 1017.1
20260507224212 76 183 6.1 10.4 0.00 0.00 0.00 9 1017.1
20260507223713 76 176 5.2 13.9 0.00 0.00 0.00 10 1017.1
20260507223212 75 165 4.3 13.9 0.00 0.00 0.00 10 1017.1
20260507222213 75 158 5.2 10.4 0.00 0.00 0.00 11 1017.3
20260507220712 75 160 3.5 7.8 0.00 0.00 0.00 12 1017.6
20260507220213 74 159 4.3 10.4 0.00 0.00 0.00 13 1017.7
20260507213713 75 133 4.3 11.3 0.00 0.00 0.00 14 1018.2
20260507213212 74 137 5.2 12.2 0.00 0.00 0.00 14 1018.4
20260507212712 74 188 7.0 12.2 0.00 0.00 0.00 15 1018.5
20260507212212 74 162 5.2 11.3 0.00 0.00 0.00 15 1018.6
20260507210712 75 118 5.2 10.4 0.00 0.00 0.00 16 1019.0
20260507205712 73 147 6.1 10.4 0.00 0.00 0.00 16 1019.4
20260507205214 73 166 5.2 8.7 0.00 0.00 0.00 15 1019.5
20260507204212 73 267 2.6 8.7 0.00 0.00 0.00 15 1019.7
20260507203213 72 262 2.6 8.7 0.00 0.00 0.00 15 1019.8
20260507200712 73 162 3.5 6.1 0.00 0.00 0.00 17 1020.4
20260507200212 72 314 3.5 7.8 0.00 0.00 0.00 17 1020.4
20260507193711 70 238 2.6 7.8 0.00 0.00 0.00 18 1020.9
20260507191212 70 81 1.7 7.0 0.00 0.00 0.00 19 1021.4
20260507190712 69 64 3.5 8.7 0.00 0.00 0.00 20 1021.5
20260507190212 68 109 1.7 8.7 0.00 0.00 0.00 21 1021.6
20260507185212 67 216 3.5 7.8 0.00 0.00 0.00 21 1021.8
20260507184712 68 212 3.5 7.8 0.00 0.00 0.00 20 1021.9
20260507184212 70 239 2.6 5.2 0.00 0.00 0.00 21 1022.0
20260507183212 68 312 0.0 6.1 0.00 0.00 0.00 21 1022.2
20260507182712 68 80 0.9 7.8 0.00 0.00 0.00 21 1022.3
20260507181712 67 52 2.6 7.0 0.00 0.00 0.00 23 1022.4
20260507180712 64 135 0.9 5.2 0.00 0.00 0.00 25 1022.7
20260507173213 65 262 1.7 5.2 0.00 0.00 0.00 25 1023.3
20260507172712 65 6 2.6 6.1 0.00 0.00 0.00 26 1023.4
20260507171712 64 56 0.9 5.2 0.00 0.00 0.00 28 1023.6
20260507170712 63 54 2.6 6.1 0.00 0.00 0.00 29 1023.7
20260507165712 62 29 3.5 7.8 0.00 0.00 0.00 30 1023.9
20260507162212 58 351 4.3 7.8 0.00 0.00 0.00 39 1024.3
20260507161212 58 31 3.5 10.4 0.00 0.00 0.00 40 1024.6
20260507160712 57 38 4.3 10.4 0.00 0.00 0.00 42 1024.6
20260507155712 56 27 4.3 10.4 0.00 0.00 0.00 43 1024.6
20260507155213 56 36 5.2 10.4 0.00 0.00 0.00 44 1024.7
20260507154712 55 17 6.1 10.4 0.00 0.00 0.00 46 1024.7
20260507154212 54 8 3.5 7.8 0.00 0.00 0.00 48 1024.8
20260507152712 53 345 7.8 11.3 0.00 0.00 0.00 50 1025.0
20260507150712 51 7 5.2 12.2 0.00 0.00 0.00 53 1025.1
20260507144711 49 345 7.0 13.0 0.00 0.00 0.00 58 1025.1
20260507143212 48 340 6.1 10.4 0.00 0.00 0.00 62 1025.3
20260507142211 47 348 7.0 11.3 0.00 0.00 0.00 63 1025.3
20260507140713 46 2 7.0 12.2 0.00 0.00 0.00 66 1025.2
20260507140212 46 354 7.8 13.0 0.00 0.00 0.00 66 1025.3
20260507135713 45 349 6.1 13.0 0.00 0.00 0.00 67 1025.4
20260507135212 45 341 8.7 12.2 0.00 0.00 0.00 67 1025.4
20260507133712 44 355 6.1 13.0 0.00 0.00 0.00 70 1025.3
20260507133212 44 346 6.1 13.0 0.00 0.00 0.00 70 1025.3
20260507131712 43 342 7.0 13.0 0.00 0.00 0.00 72 1025.2
20260507125712 42 340 5.2 11.3 0.00 0.00 0.00 72 1025.1
20260507125212 42 351 6.1 10.4 0.00 0.00 0.00 72 1025.1
20260507123712 42 357 7.0 11.3 0.00 0.00 0.00 70 1025.2
20260507123213 42 357 5.2 10.4 0.00 0.00 0.00 70 1025.1
20260507122712 42 0 5.2 10.4 0.00 0.00 0.00 68 1025.1
20260507122211 42 358 5.2 10.4 0.00 0.00 0.00 68 1025.1
20260507121712 42 344 6.1 10.4 0.00 0.00 0.00 68 1024.9
20260507120712 42 339 5.2 8.7 0.00 0.00 0.00 68 1024.8
20260507120212 42 354 6.1 8.7 0.00 0.00 0.00 68 1024.8
20260507115212 42 353 5.2 8.7 0.00 0.00 0.00 68 1024.8
20260507114712 42 342 5.2 8.7 0.00 0.00 0.00 67 1024.7
20260507113712 42 342 4.3 8.7 0.00 0.00 0.00 66 1024.8
20260507112712 42 340 4.3 8.7 0.00 0.00 0.00 65 1024.8
20260507112212 42 335 5.2 7.8 0.00 0.00 0.00 65 1024.8
20260507111712 42 340 5.2 7.8 0.00 0.00 0.00 64 1024.8
20260507111212 42 340 4.3 7.8 0.00 0.00 0.00 63 1024.9
20260507110711 42 344 4.3 7.8 0.00 0.00 0.00 62 1024.8
20260507104712 43 16 1.7 5.2 0.00 0.00 0.00 58 1024.8
20260507102212 44 351 6.1 10.4 0.00 0.00 0.00 55 1024.7
20260507100211 44 337 4.3 7.0 0.00 0.00 0.00 51 1024.6
20260507095212 44 334 4.3 7.8 0.00 0.00 0.00 47 1024.5
20260507094713 44 321 3.5 6.1 0.00 0.00 0.00 47 1024.5
20260507093712 44 335 2.6 5.2 0.00 0.00 0.00 43 1024.4
20260507092712 44 349 2.6 5.2 0.00 0.00 0.00 39 1024.3
20260507091711 45 354 4.3 7.0 0.00 0.00 0.00 38 1024.2
20260507090712 45 356 3.5 7.8 0.00 0.00 0.00 37 1024.2
20260507085212 46 356 3.5 6.1 0.00 0.00 0.00 35 1024.3
20260507083712 47 344 2.6 7.8 0.00 0.00 0.00 34 1024.1
20260507082712 47 340 4.3 7.8 0.00 0.00 0.00 34 1024.0
20260507081212 47 359 4.3 7.8 0.00 0.00 0.00 36 1023.8